Terminal Aerodrome Forecast
Issued by NWS

Home | Current Version | Previous Version | Text Only | Print | Product List | Glossary On
Versions: 1 2 3 4 5 6 7 8 9 10 11 12 13 14 15 16 17 18 19 20 21 22 23 24 25 26 27 28
000
FTUS45 KGJT 211730
TAFMTJ
TAF
KMTJ 211730Z 2118/2218 34007KT P6SM SCT060 BKN100
     FM211900 33008KT P6SM VCSH SCT080 BKN120
     FM212100 31007KT P6SM VCTS SCT070CB SCT120
     FM220100 15006KT P6SM VCTS SCT060CB BKN100
     FM220600 16007KT P6SM VCSH SCT050 BKN080
     FM221200 18005KT P6SM BKN200=

USA.gov is the U.S. government's official web portal to all federal, state and local government web resources and services.